This is the latest recevied weather packets stored in our database for station/object YC0ACE-13. If no packets are shown the sender has not sent any weather packets the latest 10 day(s).
| Time | Temp. | Humidity | Pressure | Rain* | Wind** | Luminosity | Snow |
|---|---|---|---|---|---|---|---|
| 1777245924 | 27.78° C | 78% | 1014.9 hPa | 0 mm | - | 32 W/m² | - |
| 1777245625 | 27.78° C | 79% | 1014.9 hPa | 0 mm | - | 24 W/m² | - |
| 1777245324 | 27.78° C | 80% | 1014.9 hPa | 0 mm | - | 19 W/m² | - |
| 1777245024 | 27.22° C | 81% | 1015.2 hPa | 0 mm | - | 15 W/m² | - |
| 1777244724 | 27.22° C | 81% | 1014.9 hPa | 0 mm | - | 11 W/m² | - |
| 1777244424 | 27.22° C | 81% | 1014.6 hPa | 0 mm | - | 7 W/m² | - |
| 1777244125 | 27.22° C | 81% | 1014.9 hPa | 0 mm | - | 4 W/m² | - |
| 1777243825 | 27.22° C | 81% | 1014.2 hPa | 0 mm | - | 2 W/m² | - |
| 1777243524 | 27.22° C | 82% | 1014.6 hPa | 0 mm | - | 1 W/m² | - |
| 1777243225 | 27.22° C | 82% | 1014.2 hPa | 0 mm | - | 0 W/m² | - |
| 1777242924 | 27.22° C | 82% | 1014.2 hPa | 0 mm | - | 0 W/m² | - |
| 1777242625 | 27.22° C | 82% | 1013.9 hPa | 0 mm | - | 0 W/m² | - |
| 1777242325 | 27.22° C | 82% | 1013.9 hPa | 0 mm | - | 0 W/m² | - |
| 1777242025 | 27.22° C | 82% | 1013.9 hPa | 0 mm | - | 0 W/m² | - |
| 1777241724 | 27.22° C | 83% | 1013.9 hPa | 0 mm | - | 0 W/m² | - |
| 1777241424 | 27.22° C | 82% | 1013.5 hPa | 0 mm | - | 0 W/m² | - |
| 1777241124 | 27.22° C | 82% | 1013.5 hPa | 0 mm | - | 0 W/m² | - |
| 1777240825 | 27.22° C | 82% | 1013.5 hPa | 0 mm | - | 0 W/m² | - |
| 1777240525 | 27.22° C | 82% | 1013.5 hPa | 0 mm | - | 0 W/m² | - |
| 1777240225 | 27.22° C | 82% | 1013.5 hPa | 0 mm | - | 0 W/m² | - |
| 1777239925 | 26.67° C | 82% | 1013.2 hPa | 0 mm | - | 0 W/m² | - |
| 1777239625 | 26.67° C | 82% | 1013.2 hPa | 0 mm | - | 0 W/m² | - |
| 1777239324 | 27.22° C | 81% | 1013.5 hPa | 0 mm | - | 0 W/m² | - |
| 1777239025 | 27.22° C | 81% | 1013.5 hPa | 0 mm | - | 0 W/m² | - |
| 1777238725 | 27.22° C | 81% | 1013.2 hPa | 0 mm | - | 0 W/m² | - |
* Rain latest hour (hover to see other rain measurements)
** Current wind speed in m/s (hover to see current wind gust speed)